Skip Page Navigation
NASA JPL Caltech
NASA Logo - Jet Propulsion Laboratory + View the NASA Portal
+ Near-Earth Object (NEO) Program
Search JPL
JPL Home Earth Solar System Stars & Galaxies Technology
JPL Solar System Dynamics
BODIES ORBITS EPHEMERIDES TOOLS PHYSICAL DATA DISCOVERY FAQ SITE MAP
JPL Small-Body Database Browser
Search: [ help ]  
23779 Cambier (1998 QL10)
Classification: Main-belt Asteroid          SPK-ID: 2023779
Ephemeris | Orbit Diagram | Orbital Elements | Physical Parameters | Discovery Circumstances | Close-Approach Data ]

[ show orbit diagram ]
Orbital Elements at Epoch 2457000.5 (2014-Dec-09.0) TDB
Reference: JPL 10 (heliocentric ecliptic J2000)
 Element Value Uncertainty (1-sigma)   Units 
e .1884668636665684 7.5688e-08  
a 2.597760028982178 2.8983e-08 AU
q 2.108168343761533 2.1073e-07 AU
i 3.793056580602109 7.4719e-06 deg
node 163.0466744168118 0.00011692 deg
peri 107.1812453196797 0.00012014 deg
M 354.3045198976819 3.0247e-05 deg
tp 2457024.694954530255
(2015-Jan-02.19495453)
0.00012876 JED
period 1529.315083963972
4.19
2.5594e-05
7.007e-08
d
yr
n .2353994960063319 3.9395e-09 deg/d
Q 3.087351714202823 3.4446e-08 AU
  Orbit Determination Parameters
   # obs. used (total)      632  
   data-arc span      7232 days (19.80 yr)  
   first obs. used      1994-09-05  
   last obs. used      2014-06-24  
   planetary ephem.      DE431  
   SB-pert. ephem.      SB431-BIG16  
   condition code      0  
   fit RMS      .54828  
   data source      ORB  
   producer      Otto Matic  
   solution date      2015-Jan-08 02:58:19  

Additional Information
 Earth MOID = 1.09735 AU 
 T_jup = 3.388 
[ show covariance matrix ]

Ephemeris | Orbit Diagram | Orbital Elements | Physical Parameters | Discovery Circumstances | Close-Approach Data ]

Physical Parameter Table
Parameter Symbol Value Units Sigma Reference Notes
absolute magnitude H 14.8 mag n/a MPO302208  

23779 Cambier           Discovered 1998 Aug. 17 by the Lincoln Laboratory Near-Earth Asteroid Research Team at Socorro.
Colleen Siobahn Cambier (b. 1993) is a finalist in the 2007 Discovery Channel Young Scientist Challenge (DCYSC), a middle school science competition, for her biochem, medicine, health, and microbiology project. She attends the St. Paul's School, Clearwater, Florida.
NOTE: some special characters may not display properly (any characters within {} are an attempt to place the proper accent above a character)
Reference: 20071026/MPCPages.arcLast Updated: 2007-10-28

[ show close-approach data ]
Alternate Designations
 1998 QL10 = 1994 RJ22 
Ephemeris | Orbit Diagram | Orbital Elements | Physical Parameters | Discovery Circumstances | Close-Approach Data ]
ABOUT SSD CREDITS/AWARDS PRIVACY/COPYRIGHT GLOSSARY LINKS
FirstGov 2015-Jan-28 14:14 UT
(server date/time)  
NASA Home Page
Site Manager:   Donald K. Yeomans
Webmaster  Alan B. Chamberlin